User: anonymous
Location: Albany
(35.0000°S, 118.0000°E)
Time: 08:43:43
(UTC-04:00)
Language:

ERS-1 Rocket - Orbit

View from above orbital plane
View from above orbital plane
View from above satellite
View from above satellite

Ground track
Ground track

The orbit data is extracted from the following two-line orbital elements,

1 21610U 91050F   14209.17697593  .00000236  00000-0  89207-4 0  5535
2 21610 098.7406 234.7795 0003157 187.6172 213.8770 14.40301288208213
Epoch (UTC): 28 July 2014 04:14:50
Eccentricity: 0.0003157
inclination: 98.7406°
perigee height: 755 km
apogee height: 760 km
right ascension of ascending node: 234.7795°
argument of perigee: 187.6172°
revolutions per day: 14.40301288
mean anomaly at epoch: 213.8770°
orbit number at epoch: 20821

The dashed part of the orbit path shows where the satellite is in the earth's shadow,  

DLR